Tracking 26544 objects as of 9-Dec-2022
HD Live streaming from Space Station
objects crossing your sky now

STARLINK-4474

Track STARLINK-4474 now!
10-day predictions
STARLINK-4474 is classified as:


NORAD ID: 53547
Int'l Code: 2022-101W
Perigee: 545.6 km
Apogee: 548.1 km
Inclination: 53.2 °
Period: 95.4 minutes
Semi major axis: 6917 km
RCS: Unknown
Launch date: August 19, 2022
Source: United States (US)
Launch site: AIR FORCE EASTERN TEST RANGE (AFETR)
aabbcc
Your satellite tracking list
Your tracking list is empty




NASA's NSSDC Master Catalog

Two Line Element Set (TLE):
1 53547U 22101W   22342.73628399  .00000809  00000-0  68883-4 0  9994
2 53547  53.2174 352.5554 0001835  52.0572 308.0586 15.08847744 17786
Source of the keplerian elements: AFSPC